THORAD DELTA 1 DEB, 42610

Orbit data source: Space-Track

THORAD DELTA 1 DEB, 42610 is space debris in SSO originally from a launch on Fri, 15 Nov 1974 UTC launched from the Air Force Western Test Range (AFWTR). Debris objects in space refer to the collection of defunct objects orbiting the Earth. Examples of debris include non-operational satellites, rocket bodies, and fragments generated from explosions, collisions, or faulty payload assembly.

Loading next visibility...
Identifier
42610, 1974-089GB
Orbit
SSO
Country
Flag of USUS
Related business
Manufacturer
Unknown
Mission
Spacecraft
Bus & Motor
Unknown
Mass
Unknown
Launch date (UTC)
1974-11-15 (51 years ago)
Launch vehicle
Unknown
Launch site
Air Force Western Test Range (AFWTR)
Object type
Payload
Rocket body
Debris
Shape & HBR
Unknown shape, 0.1 m
Radar Cross Section
Small (<0.1 m²)

Expand to show TLE details & history
Last TLE update: 4 weeks ago

TLE from 4 weeks ago
0 THORAD DELTA 1 DEB
1 42610U 74089GB  25273.48156542 -.00000044  00000-0 -15778-4 0  9997
2 42610 101.4247 150.9216 0079141 265.6570  93.5450 12.40362951537005
Epoch: 2025-09-30T11:33Z
TLE epoch observation values (Epoch: 2025-09-30T11:33:27.252Z)
Latitude
-0.00001°
Longitude
-31.91225°
Altitude
1,511.987 km
Speed
7.107 km/s
True Right ascension
10h 03m 41s
True Declination
0° 00' 00"
Sunlit
Object was in daylight at epoch
Visualization orbit readout
Latitude
Unknown
Longitude
Unknown
Altitude
Unknown
Speed
Unknown
Apparent Right ascension
Unknown
Apparent Declination
Unknown
Sunlit
N/A
Visualization observer readout
Local Sidereal Time
00:22:08
Azimuth
Unknown
Elevation
Unknown
Doppler factor
Unknown
Orbital elements
Apogee altitude
1,564.975 km
Perigee altitude
1,440.237 km
Semi-major axis
7,880.743 km
Eccentricity
0.00791
Inclination
101.4247°
RAAN
150.9216°
Arg. of periapsis
265.657°
True anomaly
94.44956°
Mean anomaly
93.545°
Eccentric anomaly
93.99734°
Mean motion
3.10236 °/min
Orbital period
116.04 mins
BSTAR
-0.000015778

Documentation

Showing up to 5 results
|